Location: Arcizac
(43.0933°N, 0.0112°E)
Time: 17:56:01
(UTC+00:00)

Cosmos 1943 Rocket - Pass Details

Date: 14 December 2019
Orbit: 812 x 844 km, 71.0° (Epoch: 19 January)

Event Time Altitude Azimuth Distance (km) Brightness Sun altitude
Rises 18:22:53 0° 335° (NNW) 3,400 5.5 -20.6°
Reaches altitude 10° 18:25:21 10° 337° (NNW) 2,458 4.7 -21.0°
Maximum altitude 18:31:00 83° 65° (ENE) 844 2.0 -22.1°
Drops below altitude 10° 18:36:34 10° 154° (SSE) 2,421 4.4 -23.1°
Sets 18:38:59 0° 155° (SSE) 3,345 5.2 -23.5°
